Vigan, Philippines

2:53 AM PHT on March 05, 2015 (GMT +0800)
Laoag International | Change Station
CLOSE
Current Station
Airport
Location: Laoag,
Elevation: 16 ft
Nearby Weather Stations

Elev 16 ft 18.18 °N, 120.53 °E | Updated 53 minutes ago

Partly Cloudy
Partly Cloudy
72 °F
Feels Like 72 °F
N
2
Wind Variable Wind from ESE

Today
High -- | Low -- °F
--% Chance of Precip.
Yesterday
High -- | Low -- °F
Precip. -- in
6:14 AM 6:05 PM
Waxing Gibbous, 99% visible
Pressure 29.92 in
Visibility 6.2 miles
Clouds Few 1900 ft
Dew Point 68 °F
Humidity 88%
Rainfall 0.00 in
Snow Depth Not available.
UV 0 out of 12
Pollen Not available.
Air Quality Not available.
Flu Activity Not available.
METAR RPLI 041800Z 11002KT 9999 FEW019 22/20 Q1013 NOSIG RMK A2991

More Conditions Fewer Conditions

Pressure 29.92 in
Visibility 6.2 miles
Clouds Few 1900 ft
Dew Point 68 °F
Humidity 88%
Rainfall 0.00 in
Snow Depth Not available.
UV 0 out of 12
Pollen Not available.
Air Quality Not available.
Flu Activity Not available.
METAR RPLI 041800Z 11002KT 9999 FEW019 22/20 Q1013 NOSIG RMK A2991

More Conditions Fewer Conditions

10-Day Weather Forecast

Almanac

Astronomy

Mar. 05, 2015 Rise Set
Actual Time
Civil Twilight
Nautical Twilight
Astronomical Twilight
Moon
Length of Visible Light
Length of Day
Tomorrow will be .
, % of the Moon is Illuminated

Today's Extremes

Country Highs Country Lows

Community

WunderPhotos

Upload Photos

1,802,536 photos uploaded!

WunderBlogs® & News

Nearby

Air Quality

  Air Quality AQ Index Pollutant
Not available.

Snow Depth

Station Depth Elevation

Earthquake Activity

City Distance Mag. Time & Date
Minimum magnitude displayed is 2.5.

Coastal Water Temperatures

Place Temperature

Nearby Weather Stations